Ludington, MI

10:13 AM EST on December 07, 2016 (GMT -0500)
Mason County

Weather History for KLDM - December, 2012

Change the Weather History Date:

Friday, December 14, 2012

  Actual Average Record
Temperature  
Mean Temperature 34 °F -  
Max Temperature 44 °F 34 °F 58 °F (2015)
Min Temperature 25 °F 21 °F 5 °F (1973)
Degree Days  
Heating Degree Days 30    
Moisture  
Dew Point 27 °F    
Average Humidity 74    
Maximum Humidity 90    
Minimum Humidity 47    
Precipitation  
Precipitation 0.00 in - - ()
Sea Level Pressure  
Sea Level Pressure 30.16 in    
Wind  
Wind Speed 2 mph (ESE)    
Max Wind Speed 8 mph    
Max Gust Speed -    
Visibility 9 miles    
Events      
Averages and records for this station are not official NWS values.
T = Trace of Precipitation, MM = Missing Value Source: NWS Daily Summary

Daily Weather History Graph

Daily Weather History Graph

Search for Another Location

Airport or City:

Trip Planner

Search our weather history database for the weather conditions in past years. The results will help you decide how hot, cold, wet, or windy it might be!

Date:

Astronomy

Dec. 14, 2012 Rise Set
Actual Time 8:12 AM EST 5:08 PM EST
Civil Twilight 7:39 AM EST 5:41 PM EST
Nautical Twilight 7:03 AM EST 6:17 PM EST
Astronomical Twilight 6:28 AM EST 6:52 PM EST
Moon 9:15 AM EST (12/14) 7:02 PM EST (12/14)
Length of Visible Light 10h 01m
Length of Day
8h 55m
Waxing Crescent, 3% of the Moon is Illuminated
Dec 14
Waxing Crescent
Dec 20
First Quarter
Dec 28
Full
Jan 4
Last Quarter
Jan 11
New

Hourly Weather History & Observations

Time (EST) Temp. Windchill Dew Point Humidity Pressure Visibility Wind Dir Wind Speed Gust Speed Precip Events Conditions
12:15 AM 40.1 °F 36.1 °F 26.6 °F 59% 30.11 in 10.0 mi West 5.8 mph - N/A   Clear
12:35 AM 40.1 °F 36.1 °F 27.0 °F 59% 30.11 in 10.0 mi WNW 5.8 mph - N/A   Clear
12:55 AM 40.1 °F 38.0 °F 27.3 °F 60% 30.11 in 10.0 mi WNW 3.5 mph - N/A   Clear
1:15 AM 40.1 °F 38.0 °F 28.0 °F 62% 30.11 in 10.0 mi WNW 3.5 mph - N/A   Clear
1:35 AM 40.1 °F - 29.1 °F 65% 30.11 in 10.0 mi Calm Calm - N/A   Clear
1:55 AM 38.5 °F - 28.2 °F 67% 30.12 in 10.0 mi Calm Calm - N/A   Clear
2:15 AM 34.5 °F - 27.7 °F 76% 30.12 in 10.0 mi Calm Calm - N/A   Clear
2:35 AM 32.5 °F - 27.9 °F 83% 30.13 in 10.0 mi Calm Calm - N/A   Clear
2:54 AM 30.2 °F - 26.4 °F 86% 30.13 in 10.0 mi Calm Calm - N/A   Clear
3:15 AM 30.2 °F - 26.6 °F 86% 30.14 in 10.0 mi Calm Calm - N/A   Clear
3:35 AM 30.2 °F - 27.0 °F 88% 30.14 in 7.0 mi Calm Calm - N/A   Clear
3:55 AM 30.2 °F - 27.1 °F 88% 30.14 in 10.0 mi Calm Calm - N/A   Clear
4:15 AM 27.9 °F - 24.8 °F 88% 30.14 in 7.0 mi Calm Calm - N/A   Clear
4:35 AM 30.2 °F - 27.3 °F 89% 30.15 in 7.0 mi Calm Calm - N/A   Clear
4:55 AM 30.2 °F - 27.3 °F 89% 30.15 in 7.0 mi Calm Calm - N/A   Clear
5:15 AM 28.8 °F - 25.9 °F 89% 30.15 in 7.0 mi Calm Calm - N/A   Clear
5:35 AM 29.3 °F - 26.6 °F 90% 30.16 in 5.0 mi Calm Calm - N/A   Clear
5:55 AM 27.9 °F - 25.2 °F 90% 30.16 in 5.0 mi Calm Calm - N/A   Clear
6:15 AM 28.4 °F - 25.5 °F 89% 30.16 in 7.0 mi Calm Calm - N/A   Clear
6:35 AM 27.9 °F - 25.2 °F 90% 30.16 in 5.0 mi Calm Calm - N/A   Clear
6:55 AM 27.9 °F - 25.2 °F 90% 30.17 in 3.0 mi Calm Calm - N/A   Clear
7:15 AM 27.9 °F - 25.2 °F 90% 30.17 in 5.0 mi Calm Calm - N/A   Clear
7:34 AM 25.3 °F - 22.6 °F 89% 30.17 in 3.0 mi Calm Calm - N/A   Clear
7:55 AM 27.9 °F - 25.3 °F 90% 30.17 in 7.0 mi Calm Calm - N/A   Clear
8:15 AM 25.7 °F - 22.8 °F 89% 30.17 in 4.0 mi Calm Calm - N/A   Clear
8:34 AM 25.5 °F - 22.8 °F 89% 30.18 in 3.0 mi Calm Calm - N/A   Clear
8:55 AM 26.4 °F - 23.5 °F 89% 30.18 in 5.0 mi Calm Calm - N/A   Clear
9:15 AM 27.9 °F - 25.2 °F 90% 30.19 in 5.0 mi Calm Calm - N/A   Clear
9:35 AM 30.2 °F - 27.5 °F 90% 30.20 in 5.0 mi Calm Calm - N/A   Clear
9:55 AM 35.1 °F - 32.2 °F 89% 30.20 in 7.0 mi Calm Calm - N/A   Clear
10:15 AM 36.5 °F 33.9 °F 31.1 °F 81% 30.21 in 10.0 mi East 3.5 mph - N/A   Clear
10:35 AM 37.6 °F 35.1 °F 30.0 °F 74% 30.21 in 10.0 mi East 3.5 mph - N/A   Clear
10:55 AM 40.1 °F 38.0 °F 30.9 °F 70% 30.22 in 10.0 mi East 3.5 mph - N/A   Clear
11:15 AM 40.1 °F 38.0 °F 29.1 °F 65% 30.22 in 10.0 mi ESE 3.5 mph - N/A   Clear
11:35 AM 41.4 °F 37.6 °F 28.6 °F 60% 30.21 in 10.0 mi SE 5.8 mph - N/A   Clear
11:55 AM 41.4 °F 37.6 °F 28.4 °F 60% 30.21 in 10.0 mi East 5.8 mph - N/A   Clear
12:15 PM 42.8 °F - 28.4 °F 57% 30.21 in 10.0 mi Calm Calm - N/A   Clear
12:35 PM 42.8 °F - 27.7 °F 55% 30.20 in 10.0 mi Calm Calm - N/A   Clear
12:55 PM 42.8 °F 41.1 °F 28.2 °F 56% 30.20 in 10.0 mi ESE 3.5 mph - N/A   Clear
1:15 PM 43.0 °F 40.3 °F 28.0 °F 56% 30.19 in 10.0 mi ESE 4.6 mph - N/A   Clear
1:35 PM 43.9 °F - 27.3 °F 52% 30.18 in 10.0 mi Calm Calm - N/A   Clear
1:55 PM 43.0 °F 41.3 °F 25.9 °F 51% 30.17 in 10.0 mi SE 3.5 mph - N/A   Clear
2:14 PM 43.9 °F 41.3 °F 25.5 °F 48% 30.17 in 10.0 mi ESE 4.6 mph - N/A   Clear
2:35 PM 43.9 °F - 26.2 °F 50% 30.16 in 10.0 mi Calm Calm - N/A   Clear
2:55 PM 44.1 °F 40.8 °F 25.9 °F 49% 30.15 in 10.0 mi ESE 5.8 mph - N/A   Clear
3:15 PM 44.1 °F 42.5 °F 26.1 °F 49% 30.15 in 10.0 mi SE 3.5 mph - N/A   Clear
3:35 PM 43.9 °F 41.3 °F 26.2 °F 50% 30.15 in 10.0 mi SE 4.6 mph - N/A   Clear
3:55 PM 44.2 °F 41.8 °F 25.9 °F 49% 30.15 in 10.0 mi SE 4.6 mph - N/A   Clear
4:15 PM 43.9 °F 41.3 °F 25.0 °F 47% 30.14 in 10.0 mi ESE 4.6 mph - N/A   Clear
4:35 PM 43.2 °F 40.5 °F 25.3 °F 49% 30.14 in 10.0 mi ESE 4.6 mph - N/A   Clear
5:15 PM 40.1 °F - 26.4 °F 58% 30.14 in 10.0 mi Calm Calm - N/A   Clear
5:35 PM 37.6 °F - 27.0 °F 66% 30.15 in 10.0 mi Calm Calm - N/A   Clear
5:55 PM 35.1 °F - 26.6 °F 71% 30.16 in 10.0 mi Calm Calm - N/A   Clear
6:15 PM 34.7 °F - 26.8 °F 73% 30.15 in 10.0 mi Calm Calm - N/A   Clear
6:35 PM 31.8 °F - 25.0 °F 76% 30.15 in 10.0 mi Calm Calm - N/A   Clear
6:55 PM 30.2 °F - 25.3 °F 82% 30.15 in 10.0 mi Calm Calm - N/A   Clear
7:15 PM 29.7 °F 26.1 °F 24.6 °F 81% 30.16 in 10.0 mi East 3.5 mph - N/A   Clear
7:35 PM 30.4 °F 26.9 °F 24.8 °F 80% 30.15 in 10.0 mi East 3.5 mph - N/A   Clear
7:55 PM 27.9 °F 21.5 °F 22.8 °F 81% 30.15 in 10.0 mi East 5.8 mph - N/A   Clear
8:15 PM 31.6 °F 26.0 °F 24.8 °F 76% 30.15 in 10.0 mi East 5.8 mph - N/A   Clear
8:54 PM 32.4 °F 26.9 °F 26.4 °F 79% 30.15 in 10.0 mi East 5.8 mph - N/A   Clear
9:15 PM 31.5 °F 25.8 °F 25.7 °F 79% 30.15 in 10.0 mi ESE 5.8 mph - N/A   Clear
9:35 PM 32.5 °F 29.3 °F 26.1 °F 77% 30.15 in 10.0 mi ESE 3.5 mph - N/A   Clear
9:55 PM 32.5 °F 26.2 °F 26.4 °F 78% 30.14 in 10.0 mi ESE 6.9 mph - N/A   Clear
10:15 PM 35.1 °F 29.3 °F 28.2 °F 76% 30.14 in 10.0 mi ESE 6.9 mph - N/A   Clear
10:35 PM 32.5 °F 26.2 °F 26.8 °F 79% 30.13 in 10.0 mi East 6.9 mph - N/A   Clear
10:55 PM 32.9 °F 26.7 °F 27.3 °F 80% 30.12 in 10.0 mi East 6.9 mph - N/A   Clear
11:15 PM 34.0 °F 27.2 °F 28.6 °F 81% 30.11 in 10.0 mi East 8.1 mph - N/A   Clear
11:35 PM 35.1 °F 28.6 °F 29.5 °F 80% 30.12 in 10.0 mi ESE 8.1 mph - N/A   Clear
11:55 PM 35.1 °F 30.1 °F 29.5 °F 80% 30.11 in 10.0 mi East 5.8 mph - N/A   Clear